Forks, WA

11:49 PM PST on January 18, 2017 (GMT -0800)
Quillayute

Weather History for KUIL - December, 2013

Change the Weather History Date:

Saturday, December 7, 2013

  Actual Average Record
Temperature  
Mean Temperature 24 °F 41 °F  
Max Temperature 33 °F 46 °F 59 °F (2014)
Min Temperature 15 °F 35 °F 13 °F (1972)
Degree Days  
Heating Degree Days 41 24  
Month to date heating degree days 215 168  
Since 1 July heating degree days 1411 1882  
Cooling Degree Days 0 0  
Month to date cooling degree days 0 0  
Year to date cooling degree days 39 19  
Moisture  
Dew Point 6 °F    
Average Humidity 51    
Maximum Humidity 74    
Minimum Humidity 28    
Precipitation  
Precipitation 0.00 in 0.45 in 2.71 in (1984)
Month to date precipitation 1.04 3.23  
Year to date precipitation 83.52 89.78  
Sea Level Pressure  
Sea Level Pressure 30.35 in    
Wind  
Wind Speed 9 mph (NE)    
Max Wind Speed 20 mph    
Max Gust Speed 25 mph    
Visibility 7 miles    
Events      
T = Trace of Precipitation, MM = Missing Value Source: NWS Daily Summary

Daily Weather History Graph

Daily Weather History Graph

Search for Another Location

Airport or City:

Trip Planner

Search our weather history database for the weather conditions in past years. The results will help you decide how hot, cold, wet, or windy it might be!

Date:

Astronomy

Dec. 07, 2013 Rise Set
Actual Time 7:54 AM PST 4:25 PM PST
Civil Twilight 7:18 AM PST 5:01 PM PST
Nautical Twilight 6:38 AM PST 5:40 PM PST
Astronomical Twilight 6:01 AM PST 6:18 PM PST
Moon 11:26 AM PST (12/7) 10:32 PM PST (12/7)
Length of Visible Light 9h 43m
Length of Day
8h 31m
Waxing Crescent, 30% of the Moon is Illuminated
Dec 7
Waxing Crescent
Dec 9
First Quarter
Dec 17
Full
Dec 25
Last Quarter
Jan 1
New

Hourly Weather History & Observations

Time (PST) Temp. Windchill Dew Point Humidity Pressure Visibility Wind Dir Wind Speed Gust Speed Precip Events Conditions
12:53 AM 25.0 °F 12.6 °F 9.0 °F 51% 30.25 in 7.0 mi NE 15.0 mph 28.8 mph N/A   Clear
1:53 AM 25.0 °F 11.3 °F 8.1 °F 49% 30.25 in 7.0 mi ENE 18.4 mph 27.6 mph N/A   Clear
2:53 AM 25.0 °F 10.2 °F 8.1 °F 49% 30.26 in 7.0 mi ENE 21.9 mph 31.1 mph N/A   Clear
3:53 AM 25.0 °F 14.8 °F 7.0 °F 46% 30.27 in 8.0 mi ENE 10.4 mph 17.3 mph N/A   Clear
4:53 AM 25.0 °F 13.1 °F 6.1 °F 45% 30.27 in 8.0 mi ENE 13.8 mph 23.0 mph N/A   Clear
5:53 AM 25.0 °F 12.6 °F 5.0 °F 43% 30.27 in 8.0 mi ENE 15.0 mph 21.9 mph N/A   Clear
6:53 AM 25.0 °F 18.1 °F 5.0 °F 43% 30.30 in 8.0 mi East 5.8 mph - N/A   Clear
7:53 AM 24.1 °F 14.4 °F 3.9 °F 42% 30.33 in 7.0 mi NE 9.2 mph - N/A   Clear
8:53 AM 26.1 °F 15.6 °F 5.0 °F 41% 30.35 in 7.0 mi ENE 11.5 mph - N/A   Clear
9:53 AM 28.9 °F 20.4 °F 1.9 °F 32% 30.37 in 7.0 mi ENE 9.2 mph - N/A   Clear
10:53 AM 30.0 °F 20.5 °F 3.0 °F 32% 30.38 in 7.0 mi NE 11.5 mph - N/A   Clear
11:53 AM 30.9 °F 20.7 °F 5.0 °F 33% 30.37 in 7.0 mi NE 13.8 mph 21.9 mph N/A   Clear
12:53 PM 30.9 °F 21.7 °F 1.9 °F 29% 30.36 in 7.0 mi NE 11.5 mph - N/A   Clear
1:53 PM 32.0 °F 24.2 °F 3.0 °F 29% 30.36 in 7.0 mi NE 9.2 mph - N/A   Clear
2:53 PM 32.0 °F 25.6 °F 5.0 °F 32% 30.38 in 7.0 mi North 6.9 mph - N/A   Clear
3:53 PM 30.9 °F 24.3 °F 3.0 °F 31% 30.38 in 7.0 mi North 6.9 mph - N/A   Clear
4:53 PM 28.0 °F 21.7 °F 7.0 °F 41% 30.39 in 8.0 mi North 5.8 mph - N/A   Clear
5:53 PM 21.9 °F - 7.0 °F 53% 30.39 in 8.0 mi Calm Calm - N/A   Clear
6:53 PM 19.0 °F - 9.0 °F 65% 30.39 in 8.0 mi Calm Calm - N/A   Clear
7:53 PM 21.0 °F 16.2 °F 7.0 °F 55% 30.41 in 8.0 mi ENE 3.5 mph - N/A   Clear
8:53 PM 18.0 °F 12.7 °F 8.1 °F 65% 30.41 in 8.0 mi ENE 3.5 mph - N/A   Clear
9:53 PM 21.0 °F 13.4 °F 9.0 °F 60% 30.41 in 8.0 mi ENE 5.8 mph - N/A   Clear
10:53 PM 18.0 °F - 10.0 °F 71% 30.41 in 8.0 mi Calm Calm - N/A   Clear
11:53 PM 17.1 °F - 10.0 °F 74% 30.45 in 8.0 mi Calm Calm - N/A   Clear